TimeEST,TemperatureF,Dew PointF,Humidity,Sea Level PressureIn,VisibilityMPH,Wind Direction,Wind SpeedMPH,Gust SpeedMPH,PrecipitationIn,Events,Conditions,WindDirDegrees,DateUTC
12:01 AM,57.2,57.2,100,30.13,0.8,SSW,4.6,-,N/A,,Overcast,200,2012-12-03 05:01:00
12:26 AM,57.2,57.2,100,30.13,1.2,SSW,4.6,-,N/A,,Overcast,210,2012-12-03 05:26:00
12:53 AM,57.9,57.9,100,30.13,1.2,SSW,4.6,-,N/A,,Overcast,210,2012-12-03 05:53:00
1:53 AM,57.9,57.9,100,30.13,1.0,SSW,4.6,-,0.00,Rain,Light Rain,200,2012-12-03 06:53:00
2:11 AM,57.2,57.2,100,30.13,0.8,SSW,5.8,-,0.01,,Overcast,200,2012-12-03 07:11:00
2:34 AM,57.2,57.2,100,30.13,1.2,SSW,8.1,-,0.01,,Overcast,200,2012-12-03 07:34:00
2:53 AM,57.9,57.9,100,30.13,1.2,SSW,5.8,-,0.01,,Overcast,200,2012-12-03 07:53:00
3:31 AM,57.2,57.2,100,30.13,1.8,South,5.8,-,N/A,,Overcast,180,2012-12-03 08:31:00
3:40 AM,57.2,57.2,100,30.13,2.5,South,5.8,-,N/A,,Overcast,180,2012-12-03 08:40:00
3:53 AM,57.0,57.0,100,30.13,2.5,South,5.8,-,N/A,,Overcast,180,2012-12-03 08:53:00
4:03 AM,57.2,57.2,100,30.13,3.0,South,5.8,-,N/A,,Overcast,180,2012-12-03 09:03:00
4:53 AM,57.0,57.0,100,30.12,4.0,South,5.8,-,N/A,,Overcast,180,2012-12-03 09:53:00
5:14 AM,57.2,57.2,100,30.13,4.0,South,5.8,-,N/A,,Overcast,180,2012-12-03 10:14:00
5:40 AM,57.2,57.2,100,30.13,5.0,South,6.9,-,N/A,,Overcast,180,2012-12-03 10:40:00
5:53 AM,57.0,57.0,100,30.13,5.0,South,8.1,-,N/A,,Overcast,180,2012-12-03 10:53:00
6:07 AM,57.2,57.2,100,30.14,6.0,South,6.9,-,N/A,,Overcast,180,2012-12-03 11:07:00
6:53 AM,57.9,57.0,97,30.14,7.0,South,8.1,-,N/A,,Overcast,180,2012-12-03 11:53:00
7:53 AM,57.9,57.0,97,30.14,9.0,South,8.1,-,N/A,,Overcast,180,2012-12-03 12:53:00
8:53 AM,57.9,57.0,97,30.14,10.0,South,9.2,-,N/A,,Overcast,190,2012-12-03 13:53:00
9:53 AM,59.0,57.0,93,30.14,10.0,SSW,9.2,-,N/A,,Overcast,200,2012-12-03 14:53:00
10:53 AM,61.0,57.0,87,30.14,10.0,SSW,9.2,-,N/A,,Overcast,200,2012-12-03 15:53:00
11:50 AM,62.6,57.2,82,30.13,10.0,SW,10.4,-,N/A,,Overcast,220,2012-12-03 16:50:00
11:53 AM,62.1,57.0,84,30.12,10.0,SSW,9.2,-,N/A,,Overcast,200,2012-12-03 16:53:00
12:23 PM,62.6,57.2,82,30.11,10.0,South,11.5,-,N/A,,Overcast,190,2012-12-03 17:23:00
12:53 PM,64.0,57.9,80,30.10,10.0,South,8.1,-,N/A,,Scattered Clouds,190,2012-12-03 17:53:00
1:53 PM,66.9,57.9,73,30.07,10.0,SW,9.2,-,N/A,,Mostly Cloudy,220,2012-12-03 18:53:00
2:20 PM,66.2,57.2,73,30.07,10.0,SSW,12.7,-,N/A,,Scattered Clouds,200,2012-12-03 19:20:00
2:53 PM,68.0,57.9,70,30.06,10.0,SW,10.4,-,N/A,,Partly Cloudy,230,2012-12-03 19:53:00
3:53 PM,66.9,57.9,73,30.06,10.0,SSW,8.1,-,N/A,,Scattered Clouds,200,2012-12-03 20:53:00
4:53 PM,64.9,57.9,78,30.06,10.0,South,8.1,-,N/A,,Clear,190,2012-12-03 21:53:00
5:53 PM,63.0,55.9,78,30.07,10.0,South,8.1,-,N/A,,Clear,180,2012-12-03 22:53:00
6:53 PM,61.0,55.0,81,30.08,10.0,South,6.9,-,N/A,,Clear,180,2012-12-03 23:53:00
7:53 PM,61.0,55.0,81,30.07,10.0,South,10.4,-,N/A,,Clear,180,2012-12-04 00:53:00
8:53 PM,61.0,55.0,81,30.07,10.0,South,10.4,-,N/A,,Clear,180,2012-12-04 01:53:00
9:53 PM,60.1,54.0,80,30.07,10.0,South,10.4,-,N/A,,Clear,190,2012-12-04 02:53:00
10:53 PM,61.0,53.1,75,30.07,10.0,SSW,8.1,-,N/A,,Clear,210,2012-12-04 03:53:00
11:53 PM,62.1,52.0,70,30.08,10.0,SSW,10.4,-,N/A,,Mostly Cloudy,210,2012-12-04 04:53:00